Location: G�kdere
(37.0328°N, 30.9000°E)
Time: 20:46:03
(UTC+00:00)

Cosmos 1515 - Pass Details

Date: 03 March 2021
Orbit: 504 x 516 km, 82.5° (Epoch: 18 April)

Event Time Altitude Azimuth Distance (km) Brightness Sun altitude
Rises 16:21:39 0° 1° (N) 2,639 7.3 -6.6°
Reaches altitude 10° 16:23:55 10° 10° (N) 1,746 6.3 -7.1°
Maximum altitude 16:27:29 37° 79° (E) 806 4.2 -7.8°
Drops below altitude 10° 16:31:02 10° 148° (SSE) 1,727 6.1 -8.5°
Sets 16:33:15 0° 157° (SSE) 2,606 7.0 -8.9°
